Decatur, IL

5:25 AM CDT on June 25, 2017 (GMT -0500)
Decatur

Weather History for KDEC - August, 2013

Change the Weather History Date:

Saturday, August 3, 2013

  Actual Average Record
Temperature  
Mean Temperature 73 °F 74 °F  
Max Temperature 83 °F 85 °F 96 °F (2010)
Min Temperature 62 °F 64 °F 57 °F (1996)
Degree Days  
Heating Degree Days 0 0  
Month to date heating degree days 0 0  
Since 1 June heating degree days 18 18  
Since 1 July heating degree days 4 1  
Cooling Degree Days 8 10  
Month to date cooling degree days 25 30  
Year to date cooling degree days 642 679  
Since 1 June cooling degree days 530 592  
Growing Degree Days 23 (Base 50)    
Moisture  
Dew Point 65 °F    
Average Humidity 72    
Maximum Humidity 93    
Minimum Humidity 51    
Precipitation  
Precipitation T in 0.08 in 0.38 in (2003)
Month to date precipitation T 0.25  
Year to date precipitation 26.35 22.91  
Sea Level Pressure  
Sea Level Pressure 30.02 in    
Wind  
Wind Speed 6 mph (North)    
Max Wind Speed 15 mph    
Max Gust Speed 21 mph    
Visibility 9 miles    
Events Rain    
T = Trace of Precipitation, MM = Missing Value Source: NWS Daily Summary

Daily Weather History Graph

Daily Weather History Graph

Search for Another Location

Airport or City:

Trip Planner

Search our weather history database for the weather conditions in past years. The results will help you decide how hot, cold, wet, or windy it might be!

Date:

Astronomy

Aug. 03, 2013 Rise Set
Actual Time 5:56 AM CDT 8:06 PM CDT
Civil Twilight 5:26 AM CDT 8:36 PM CDT
Nautical Twilight 4:49 AM CDT 9:12 PM CDT
Astronomical Twilight 4:09 AM CDT 9:52 PM CDT
Moon 3:05 AM CDT (8/3) 5:48 PM CDT (8/3)
Length of Visible Light 15h 09m
Length of Day
14h 09m
Waning Crescent, 9% of the Moon is Illuminated
Aug 3
Waning Crescent
Aug 6
New
Aug 14
First Quarter
Aug 20
Full
Aug 28
Last Quarter

Hourly Weather History & Observations

Time (CDT) Temp. Heat Index Dew Point Humidity Pressure Visibility Wind Dir Wind Speed Gust Speed Precip Events Conditions
12:44 AM 71.6 °F - 69.8 °F 94% 29.97 in 7.0 mi SW 4.6 mph - N/A   Mostly Cloudy
12:54 AM 72.0 °F - 69.1 °F 91% 29.96 in 6.0 mi WSW 4.6 mph - N/A   Scattered Clouds
1:51 AM 71.6 °F - 69.8 °F 94% 29.98 in 7.0 mi NW 5.8 mph - N/A   Overcast
1:54 AM 72.0 °F - 69.1 °F 91% 29.96 in 7.0 mi WNW 4.6 mph - N/A   Overcast
2:08 AM 71.6 °F - 69.8 °F 94% 29.97 in 6.0 mi NW 6.9 mph - N/A   Overcast
2:41 AM 71.6 °F - 68.0 °F 88% 29.97 in 6.0 mi NNW 9.2 mph - 0.00 in Rain Light Rain
2:45 AM 71.6 °F - 68.0 °F 88% 29.97 in 7.0 mi NNW 9.2 mph - 0.00 in Rain Light Rain
2:54 AM 71.1 °F - 68.0 °F 90% 29.96 in 7.0 mi NNW 6.9 mph - 0.00 in   Overcast
3:54 AM 71.1 °F - 66.9 °F 87% 29.94 in 7.0 mi North 5.8 mph - N/A   Overcast
4:20 AM 71.6 °F - 66.2 °F 83% 29.96 in 7.0 mi North 6.9 mph - N/A   Overcast
4:54 AM 69.1 °F - 66.9 °F 93% 29.95 in 5.0 mi NNE 5.8 mph - N/A   Mostly Cloudy
5:03 AM 69.8 °F - 66.2 °F 88% 29.96 in 5.0 mi NNE 5.8 mph - N/A   Scattered Clouds
5:54 AM 68.0 °F - 64.9 °F 90% 29.97 in 6.0 mi NNE 4.6 mph - N/A   Mostly Cloudy
6:54 AM 69.1 °F - 64.9 °F 87% 29.99 in 9.0 mi NNE 3.5 mph - N/A   Mostly Cloudy
7:54 AM 70.0 °F - 64.9 °F 84% 30.00 in 10.0 mi NE 4.6 mph - N/A   Clear
8:23 AM 71.6 °F - 64.4 °F 78% 30.01 in 10.0 mi ENE 4.6 mph - N/A   Mostly Cloudy
8:40 AM 71.6 °F - 66.2 °F 83% 30.02 in 10.0 mi ENE 4.6 mph - N/A   Overcast
8:54 AM 73.0 °F - 66.0 °F 79% 30.00 in 10.0 mi NNE 5.8 mph - N/A   Scattered Clouds
9:39 AM 73.4 °F - 66.2 °F 78% 30.02 in 10.0 mi NNE 6.9 mph - N/A   Mostly Cloudy
9:54 AM 75.0 °F - 66.9 °F 76% 30.02 in 10.0 mi NNE 4.6 mph - N/A   Mostly Cloudy
10:36 AM 75.2 °F - 66.2 °F 73% 30.05 in 10.0 mi Calm Calm - N/A   Scattered Clouds
10:54 AM 77.0 °F - 66.9 °F 71% 30.04 in 10.0 mi Calm Calm - N/A   Partly Cloudy
11:52 AM 80.6 °F 82.7 °F 66.2 °F 61% 30.06 in 10.0 mi North 6.9 mph - N/A   Mostly Cloudy
11:54 AM 80.1 °F 82.3 °F 66.9 °F 64% 30.04 in 10.0 mi North 4.6 mph - N/A   Mostly Cloudy
12:11 PM 80.6 °F 82.7 °F 66.2 °F 61% 30.06 in 10.0 mi NNW 6.9 mph - N/A   Partly Cloudy
12:54 PM 82.0 °F 84.1 °F 66.0 °F 58% 30.04 in 10.0 mi North 10.4 mph - N/A   Clear
1:54 PM 81.0 °F 82.2 °F 63.0 °F 54% 30.04 in 10.0 mi North 13.8 mph 20.7 mph N/A   Partly Cloudy
2:54 PM 82.0 °F 83.0 °F 62.1 °F 51% 30.04 in 10.0 mi North 9.2 mph - N/A   Partly Cloudy
3:54 PM 79.0 °F - 62.1 °F 56% 30.04 in 10.0 mi NNE 8.1 mph - N/A   Mostly Cloudy
4:54 PM 81.0 °F 81.6 °F 60.1 °F 49% 30.05 in 10.0 mi NNE 11.5 mph - N/A   Partly Cloudy
5:54 PM 81.0 °F 81.6 °F 60.1 °F 49% 30.05 in 10.0 mi NNE 6.9 mph - N/A   Clear
6:54 PM 78.1 °F - 59.0 °F 52% 30.05 in 10.0 mi North 6.9 mph - N/A   Partly Cloudy
7:54 PM 73.0 °F - 60.1 °F 64% 30.07 in 10.0 mi North 6.9 mph - N/A   Clear
8:54 PM 69.1 °F - 59.0 °F 70% 30.07 in 10.0 mi NNE 5.8 mph - N/A   Clear
9:54 PM 66.9 °F - 57.9 °F 73% 30.10 in 10.0 mi North 5.8 mph - N/A   Clear
10:54 PM 64.0 °F - 59.0 °F 84% 30.12 in 10.0 mi Calm Calm - N/A   Clear
11:54 PM 63.0 °F - 57.9 °F 84% 30.12 in 10.0 mi ENE 3.5 mph - N/A   Clear